DW4909 Weather Reports


time (UTC)temp
C
wind
direction
speed
KPH
gust
KPH
rain 1hr
cm
rain 24hr
cm
rain mn
cm
humidity
%
barometer
mb
20260508194534 22 159 3.2 12.9 0.00 0.03 0.03 33 1014.8
20260508193030 22 145 1.6 8.0 0.00 0.03 0.03 30 1014.9
20260508191531 22 146 0.0 11.3 0.00 0.03 0.03 33 1015.1
20260508190031 22 342 4.8 9.7 0.00 0.03 0.03 32 1015.3
20260508184531 22 352 3.2 8.0 0.00 0.03 0.03 31 1015.5
20260508183022 22 321 1.6 8.0 0.00 0.03 0.03 28 1015.8
20260508181519 22 124 0.0 6.4 0.00 0.03 0.03 31 1015.9
20260508180017 22 304 3.2 11.3 0.00 0.03 0.03 30 1015.8
20260508174518 22 10 0.0 4.8 0.00 0.05 0.03 33 1015.9
20260508173011 21 105 1.6 4.8 0.00 0.05 0.03 31 1016.4
20260508171508 21 83 1.6 9.7 0.00 0.05 0.03 35 1016.5
20260508170007 21 158 1.6 4.8 0.00 0.05 0.03 35 1017.0
20260508164511 21 169 3.2 12.9 0.00 0.05 0.03 30 1017.2
20260508163100 21 91 1.6 9.7 0.00 0.05 0.03 33 1017.3
20260508161559 21 34 0.0 6.4 0.00 0.05 0.03 34 1017.3
20260508160057 21 128 1.6 6.4 0.00 0.05 0.03 35 1017.5
20260508154551 20 229 0.0 6.4 0.00 0.05 0.03 34 1017.6
20260508153049 20 168 1.6 4.8 0.00 0.05 0.03 36 1017.8
20260508151546 20 97 1.6 6.4 0.00 0.05 0.03 42 1017.6
20260508150044 20 250 0.0 9.7 0.00 0.05 0.03 41 1017.6
20260508144539 19 345 0.0 3.2 0.00 0.15 0.03 42 1017.8
20260508143035 18 144 0.0 3.2 0.00 0.15 0.03 40 1018.0
20260508141531 18 159 0.0 6.4 0.00 0.15 0.03 44 1018.1
20260508140027 17 110 0.0 4.8 0.00 0.15 0.03 46 1018.2
20260508134522 17 276 0.0 4.8 0.00 0.56 0.03 52 1017.9
20260508133024 16 198 0.0 3.2 0.00 0.56 0.03 56 1017.8
20260508131516 15 316 0.0 9.7 0.00 0.56 0.03 60 1017.8
20260508130006 15 7 0.0 8.0 0.00 0.56 0.03 64 1017.7
20260508124502 12 67 1.6 8.0 0.00 1.42 0.03 73 1017.6
20260508123109 12 48 0.0 3.2 0.00 1.42 0.03 74 1017.5
20260508121606 11 344 0.0 0.0 0.03 1.42 0.03 74 1017.3
20260508120057 11 343 0.0 1.6 0.03 1.42 0.03 75 1017.1
20260508114551 10 347 0.0 1.6 0.03 1.42 0.03 75 1016.8
20260508113046 10 347 0.0 0.0 0.03 1.42 0.03 74 1016.5
20260508111544 10 347 0.0 0.0 0.00 1.40 0.00 74 1016.3
20260508110041 9 347 0.0 0.0 0.00 1.40 0.00 74 1016.0
20260508104602 9 347 0.0 0.0 0.00 1.50 0.00 74 1015.7
20260508103041 10 347 0.0 1.6 0.00 1.50 0.00 74 1015.2
20260508101529 10 347 0.0 1.6 0.00 1.50 0.00 74 1014.9
20260508100027 10 347 0.0 1.6 0.00 1.50 0.00 74 1015.0
20260508094524 10 2 0.0 1.6 0.00 1.70 0.00 73 1014.9
20260508093022 10 2 0.0 1.6 0.00 1.70 0.00 74 1014.7
20260508091518 10 323 0.0 0.0 0.00 1.70 0.00 74 1014.7
20260508090018 10 323 0.0 0.0 0.00 1.70 0.00 73 1014.7
20260508084510 10 323 0.0 0.0 0.00 2.46 0.00 73 1014.7
20260508083008 10 323 0.0 0.0 0.00 2.46 0.00 73 1014.6
20260508081504 10 323 0.0 0.0 0.00 2.46 0.00 73 1014.5
20260508080001 10 323 0.0 0.0 0.00 2.46 0.00 73 1014.3
20260508074558 10 323 0.0 0.0 0.00 2.87 0.00 73 1014.1
20260508073055 10 323 0.0 0.0 0.00 2.87 0.00 73 1014.1
20260508071559 11 323 0.0 0.0 0.00 2.87 0.00 73 1013.7
20260508070135 11 323 0.0 0.0 0.00 2.87 0.00 72 1013.9
20260508064547 11 323 0.0 0.0 0.00 3.28 0.00 72 1013.9
20260508063040 11 323 0.0 0.0 0.00 3.28 0.00 72 1014.0
20260508061537 12 323 0.0 0.0 0.00 3.28 0.00 71 1014.0
20260508060034 12 323 0.0 0.0 0.00 3.28 0.00 71 1014.4
20260508054528 13 323 0.0 0.0 0.00 3.28 0.00 71 1014.2
20260508053024 13 323 0.0 0.0 0.00 3.28 0.00 70 1014.3
20260508051521 13 323 0.0 0.0 0.00 3.28 0.00 69 1014.2
20260508050020 13 323 0.0 0.0 0.00 3.28 0.00 68 1014.0
20260508044513 13 323 0.0 0.0 0.00 3.28 0.00 68 1013.8
20260508043008 13 323 0.0 0.0 0.00 3.28 0.00 68 1013.7
20260508041506 14 323 0.0 1.6 0.00 3.28 0.00 67 1013.6
20260508040058 14 360 0.0 3.2 0.00 3.28 0.00 67 1013.3
20260508034556 14 248 0.0 3.2 0.00 3.38 3.28 68 1013.5
20260508033052 14 233 0.0 1.6 0.00 3.38 3.28 68 1013.3
20260508031553 14 233 0.0 1.6 0.00 3.38 3.28 67 1013.4
20260508030055 15 352 0.0 6.4 0.00 3.38 3.28 67 1013.3
20260508024544 15 332 0.0 3.2 0.00 3.86 3.28 67 1013.1
20260508023043 15 26 0.0 6.4 0.00 3.86 3.28 67 1013.0
20260508021538 15 304 0.0 9.7 0.00 3.86 3.28 66 1012.6
20260508020033 15 61 0.0 8.0 0.00 3.86 3.28 66 1012.5
20260508014530 16 320 0.0 4.8 0.00 3.86 3.28 67 1012.5
20260508013027 16 26 0.0 6.4 0.00 3.86 3.28 67 1012.0
20260508011524 16 238 0.0 14.5 0.00 3.86 3.28 67 1011.4
20260508010024 16 44 3.2 16.1 0.00 3.86 3.28 66 1011.1
20260508004514 17 290 4.8 22.5 0.00 3.86 3.28 64 1011.0
20260508003009 17 340 3.2 9.7 0.00 3.86 3.28 64 1010.4
20260508001506 18 346 8.0 24.1 0.00 3.86 3.28 62 1009.9
20260508000006 22 46 3.2 11.3 0.00 3.86 3.28 60 1009.0
20260507234601 23 354 0.0 4.8 0.00 3.86 3.28 59 1008.1
20260507233059 23 287 0.0 4.8 0.00 3.86 3.28 58 1007.9
20260507231557 24 359 0.0 8.0 0.00 3.86 3.28 56 1007.8
20260507230100 25 179 1.6 8.0 0.00 3.86 3.28 55 1007.6
20260507224553 25 267 3.2 8.0 0.00 3.86 3.28 53 1007.3
20260507223051 25 133 0.0 4.8 0.00 3.86 3.28 56 1007.0
20260507221549 25 274 0.0 9.7 0.00 3.86 3.28 57 1007.2
20260507220047 25 233 1.6 6.4 0.00 3.86 3.28 55 1007.1
20260507214544 25 120 0.0 6.4 0.00 3.86 3.28 54 1007.2
20260507213045 26 129 3.2 8.0 0.00 3.86 3.28 52 1006.9
20260507211540 25 140 1.6 9.7 0.00 3.86 3.28 53 1007.0
20260507210037 25 27 3.2 8.0 0.00 3.86 3.28 53 1007.0
20260507204534 25 103 1.6 8.0 0.00 3.86 3.28 53 1007.3
20260507203029 25 356 3.2 9.7 0.00 3.86 3.28 55 1007.6
20260507201535 25 257 1.6 11.3 0.00 3.86 3.28 55 1007.6
20260507200023 24 139 1.6 9.7 0.00 3.86 3.28 56 1007.8